Regional Weather Roundup
Issued by NWS

Home | Current Version | Previous Version | Graphics & Text | Print | Product List | Glossary On
Versions: 1 2 3 4 5 6 7 8 9 10 11 12 13 14 15 16 17 18 19 20 21 22 23 24 25 26 27 28 29 30 31 32 33 34 35 36 37 38 39 40 41 42 43 44 45 46 47 48 49 50
000
ASUS43 KLMK 242102
RWRKY
KENTUCKY REGIONAL WEATHER ROUNDUP
NATIONAL WEATHER SERVICE LOUISVILLE KY
500 PM EDT SUN SEP 24 2017

NOTE "FAIR" INDICATES FEW OR NO CLOUDS BELOW 12,000 FEET
WITH NO SIGNIFICANT WEATHER AND/OR OBSTRUCTIONS TO VISIBILITY.

KYZ001>023-026-027-061>063-070>075-242200-
WESTERN AND SOUTH CENTRAL KENTUCKY

CITY           SKY/WX    TMP DP  RH WIND       PRES   REMARKS
PADUCAH        MOSUNNY   89  65  44 E6        29.95F HX  91
HENDERSON      SUNNY     91  61  36 VRB3      29.98F HX  91
OWENSBORO      SUNNY     90  65  43 VRB6      29.98F HX  92
HOPKINSVILLE   TSTM      85  71  63 N14       29.98F HX  90
BOWLING GREEN  SUNNY     87  67  51 CALM      30.00F HX  90
GLASGOW        CLOUDY    87  67  52 SW3       30.01F
$$

KYZ024-025-028>034-038-045-046-053-242200-
NORTH CENTRAL KENTUCKY

CITY           SKY/WX    TMP DP  RH WIND       PRES   REMARKS
LOUISVILLE/SDF MOSUNNY   91  53  27 NE9       30.01F
LOUISVILLE/LOU SUNNY     89  53  29 SE10      30.02F
FORT KNOX      SUNNY     87  61  41 NE3       30.00F
$$

KYZ035>037-039>044-047>052-055>060-089>105-242200-
NORTHEAST KENTUCKY

CITY           SKY/WX    TMP DP  RH WIND       PRES   REMARKS
LEXINGTON      SUNNY     87  58  37 SE8       30.05F
COVINGTON      MOSUNNY   88  53  30 SE9       30.05F
FRANKFORT      SUNNY     89  54  30 E8        30.03F
$$

KYZ054-064>069-076>088-106>120-242200-
SOUTHEAST KENTUCKY

CITY           SKY/WX    TMP DP  RH WIND       PRES   REMARKS
JACKSON        SUNNY     84  63  49 CALM      30.07F
LONDON         SUNNY     83  61  47 CALM      30.06F
SOMERSET       MOSUNNY   84  61  45 CALM      30.05S
MIDDLESBORO    SUNNY     86  59  39 CALM      30.06S
MONTICELLO     CLOUDY    86  64  47 VRB6      30.05F
$$





USA.gov is the U.S. government's official web portal to all federal, state and local government web resources and services.